Home > Weather > Jennersdorf > Past weeks

Flag for Austria Weather for the Past 2 Weeks in Jennersdorf, Burgenland, Austria

Now
47 °F

Cool.


Feels Like: 47 °F
Forecast: 34 / 52 °F
Wind: 1 mph from Northwest

Location: Murska Sobota

Current Time: Feb 6, 2016 at 1:21:01 PM

Latest Report: Feb 6, 2016 at 12:00 PM


Visibility: N/A

Pressure: 30.29 "Hg

Humidity: 62%

Dew point: 35 °F

Location of JennersdorfLocation

Historic Weather in Jennersdorf — Graph

°F

Jennersdorf Temperature Yesterday

Maximum temperature yesterday: 47 °F (at 2:00 PM)
Minimum temperature yesterday: 31 °F (at 7:00 AM)
Average temperature yesterday: 40 °F

High & Low Weather Summary for the Past Weeks

 TemperatureHumidityPressure
High62 °F (Feb 1, 4:00 PM)100% (Jan 30, 10:00 AM)30.63 "Hg (Jan 30, 10:00 AM)
Low13 °F (Jan 23, 6:00 AM)45% (Feb 4, 3:00 PM)29.88 "Hg (Feb 3, 3:00 PM)
Average38 °F82%30.30 "Hg
* Reported Jan 22 11:00 AM — Feb 6 11:00 AM, Jennersdorf, Weather by CustomWeather, © 2016

Note: Actual official high and low records may vary slightly from our data, if they occured in-between our weather recording intervals... More about our weather records

Advertising

Jennersdorf Weather History for the Previous 24 Hours

 ConditionsComfort  
Time TempWeatherWind HumidityBarometerVisibility
11:00 AM
Sat, Feb 6
41 °FQuite cool.1 mph72%30.32 "HgN/A
10:00 AM37 °FChilly.1 mph79%30.34 "HgN/A
9:00 AM33 °FChilly.No wind87%30.36 "HgN/A
8:00 AM28 °FChilly.1 mph96%30.37 "HgN/A
7:00 AM27 °FChilly.1 mph96%30.37 "HgN/A
6:00 AM28 °FChilly.No wind96%30.37 "HgN/A
5:00 AM28 °FChilly.1 mph96%30.38 "HgN/A
4:00 AM29 °FChilly.1 mph94%30.39 "HgN/A
3:00 AM29 °FChilly.1 mph92%30.39 "HgN/A
12:00 AM33 °FChilly.1 mph84%30.40 "HgN/A
11:00 PM
Fri, Feb 5
35 °FChilly.2 mph78%30.41 "HgN/A
10:00 PM35 °FChilly.No wind83%30.42 "HgN/A
9:00 PM35 °FChilly.2 mph78%30.42 "HgN/A
8:00 PM36 °FChilly.1 mph75%30.43 "HgN/A
7:00 PM38 °FPassing clouds.1 mph72%30.42 "Hg12 mi
6:00 PM41 °FQuite cool.2 mph66%30.40 "HgN/A
5:00 PM44 °FQuite cool.2 mph60%30.38 "HgN/A
4:00 PM46 °FCool.2 mph52%30.36 "HgN/A
3:00 PM47 °FCool.3 mph53%30.36 "HgN/A
2:00 PM47 °FScattered clouds.2 mph48%30.35 "Hg31 mi
1:00 PM46 °FScattered clouds.3 mph62%30.36 "Hg31 mi
Weather by CustomWeather, © 2016

See weather overviewHow to use our weather pages